User: anonymous   Login
Location: Unspecified
(0.0000°N, 0.0000°E)
Time: 03:05:02
(UTC+00:00)
Language:

NOSS 3-4 (C) - Orbit

View from above orbital plane
View from above orbital plane
View from above satellite
View from above satellite

Ground track
Ground track

The orbit data is extracted from the following two-line orbital elements,

1 31708U 07027C   18109.86449333 0.00000000  00000-0  00000-0 0    07
2 31708  63.4039  21.6698 0218000  21.5772 338.4228 13.40748895    02
Epoch (UTC): 19 April 2018 20:44:52
Eccentricity: 0.0218000
inclination: 63.4039°
perigee height: 943 km
apogee height: 1269 km
right ascension of ascending node: 21.6698°
argument of perigee: 21.5772°
revolutions per day: 13.40748895
mean anomaly at epoch: 338.4228°
orbit number at epoch: 0

The dashed part of the orbit path shows where the satellite is in the earth's shadow,  

DLR